Regional Weather Roundup
Issued by NWS

Home | Current Version | Previous Version | Graphics & Text | Print | Product List | Glossary Off
Versions: 1 2 3 4 5 6 7 8 9 10 11 12 13 14 15 16 17 18 19 20 21 22 23 24 25 26 27 28 29 30 31 32 33 34 35 36 37 38 39 40 41 42 43 44 45 46 47 48 49 50

000
ASUS43 KLSX 040407
RWRMO

WEATHER SUMMARY FOR MISSOURI
NATIONAL WEATHER SERVICE SPRINGFIELD MO
1100 PM CDT FRI JUL 03 2015

NOTE: "FAIR" INDICATES FEW OR NO CLOUDS BELOW 12,000 FEET WITH NO
       SIGNIFICANT WEATHER AND/OR OBSTRUCTIONS TO VISIBILITY.
       CURRENT SKY AND/OR WEATHER CONDITIONS ARE NOT AVAILABLE FOR
       CHILLICOTHE AND FARMINGTON.

MOZ001>031-035>038-043-044-053-054-040500-
...NORTHERN AND WESTERN MISSOURI...

CITY           SKY/WX    TMP DP  RH WIND       PRES   REMARKS
KANSAS CTY INT CLEAR     69  61  75 NE5       29.99R
KANSAS C DTWN  CLEAR     71  60  68 E6        29.97R
LEE`S SUMMIT   CLEAR     70  60  70 NE5       29.99R
ST JOSEPH      CLEAR     65  61  87 CALM      29.98R
CHILLICOTHE      N/A     65  63  93 CALM      29.99R
KIRKSVILLE     CLEAR     62  59  90 CALM      29.99R

$$
MOZ066>068-077>081-088>096-101>105-040500-
...SOUTHWEST MISSOURI...

CITY           SKY/WX    TMP DP  RH WIND       PRES   REMARKS
SPRINGFIELD    CLEAR     73  67  81 NE6       29.96R
JOPLIN         PTCLDY    72  69  90 NE5       29.96R FOG

$$
MOZ032>034-039>042-045>050-055>058-069>072-040500-
...CENTRAL MISSOURI...

CITY           SKY/WX    TMP DP  RH WIND       PRES   REMARKS
COLUMBIA       FAIR      69  60  73 NE5       29.97R
JEFFERSON CITY CLEAR     72  61  68 N5        29.95R
ROLLA          CLEAR     67  64  90 CALM      29.96R
SEDALIA        CLEAR     68  64  87 CALM      29.99R
WHITEMAN AFB   CLEAR     68  61  79 E2        29.96R
WARRENSBURG    CLEAR     66  63  88 CALM      29.97R
OSAGE BEACH    CLEAR     66  63  88 CALM      29.97R

$$
MOZ051-052-059>065-040500-
...EAST CENTRAL MISSOURI...

CITY           SKY/WX    TMP DP  RH WIND       PRES   REMARKS
ST LOUIS INTL  PTCLDY    75  66  73 NE3       29.94R
SPIRIT OF STL  CLEAR     69  67  93 CALM      29.93R
ST CHARLES     CLEAR     71  68  90 N3        29.93R

$$
MOZ072>076-082>087-097>100-106>115-040500-
...SOUTH CENTRAL AND SOUTHEAST MISSOURI...

CITY           SKY/WX    TMP DP  RH WIND       PRES   REMARKS
CAPE GIRARDEAU MOCLDY    70  69  97 CALM      29.91R
FARMINGTON     CLEAR     68  64  88 CALM      29.99R
POPLAR BLUFF   PTCLDY    71  69  93 CALM      29.91R
WEST PLAINS    PTCLDY    69  67  93 CALM      29.97R

$$


USA.gov is the U.S. government's official web portal to all federal, state and local government web resources and services.